{"data":{"norad_id":62253,"epoch":"2026-05-25T02:42:44.563392Z","epoch_age_seconds":65177,"freshness":"FRESH","line1":"1 62253U 24232S   26145.11301578  .00000107  00000+0  14731-3 0  9991","line2":"2 62253  89.0096  24.6843 0017371  80.3073 280.0039 13.51006762 90001","mean_motion":13.51006762,"eccentricity":0.0017371,"inclination_deg":89.0096,"raan_deg":24.6843,"arg_perigee_deg":80.3073,"mean_anomaly_deg":280.0039,"bstar":0.00014731,"rev_number":9000,"period_min":106.58717931717,"perigee_km":1055.6210855399,"apogee_km":1081.4923889218,"semimajor_km":7446.6937372308,"source":"CELESTRAK","updated_at":"2026-05-25T13:38:02.869579Z"}}